Wind_Speed
26 25 23 20 19 19 20 22 25 28 31 33 34 36 39 38 38 38 37 36 34 32 32 32 31 29 28 28 28 28 30 32 34 36 37 39 40 42 43 44 46 48 49
28 27 25 23 21 21 22 24 27 29 32 35 37 40 41 40 39 38 34 32 30 29 29 30 30 28 28 29 30 31 32 34 35 38 40 41 42 43 45 47 49 51 52
30 29 28 26 25 25 26 27 29 32 35 38 39 41 43 42 40 36 32 29 28 27 28 28 30 30 30 31 32 34 36 37 38 40 42 43 43 45 47 49 52 54 56
33 32 31 31 30 30 30 32 34 36 39 41 42 43 43 43 40 37 32 30 27 26 26 28 29 31 32 34 36 38 39 41 42 43 45 46 47 49 50 52 54 57 59
35 34 33 34 34 34 35 37 38 41 42 44 45 46 45 45 41 38 34 31 27 27 28 29 32 34 37 39 41 42 44 46 47 48 49 51 52 54 55 55 57 60 62
37 36 36 36 37 38 39 41 43 43 44 45 46 47 45 42 39 37 35 32 30 29 31 33 35 38 41 43 45 47 49 50 52 53 54 56 57 58 59 60 61 62 64
38 37 38 38 40 41 42 43 43 43 43 44 44 45 45 43 40 39 37 35 33 33 35 37 40 43 45 47 50 52 53 54 56 57 59 61 62 63 64 65 65 64 63
36 36 36 37 38 38 39 39 40 41 41 42 44 46 45 45 44 42 40 39 38 39 40 43 45 48 50 52 54 56 57 59 60 62 63 65 65 66 66 65 65 63 63
32 32 31 31 32 33 34 35 37 39 41 43 45 46 46 46 45 44 42 42 42 44 46 48 51 53 55 57 58 60 61 63 64 65 66 66 65 65 64 64 65 65 63
32 32 32 32 33 34 35 36 38 41 43 45 47 48 48 47 46 46 46 46 47 48 50 52 55 56 58 59 61 63 64 66 66 66 66 64 63 63 63 63 64 64 63
32 33 33 34 35 36 38 39 41 43 45 47 49 50 50 50 49 49 49 49 51 53 54 56 58 59 60 61 63 64 65 65 65 64 63 62 62 61 61 61 62 63 64
33 34 34 36 37 39 41 43 45 47 49 50 50 51 52 52 52 52 53 54 55 56 57 58 59 60 61 62 63 64 64 63 62 61 61 60 60 60 60 61 61 62 63
35 35 36 37 39 41 43 46 48 50 52 52 53 54 54 55 56 56 56 57 57 58 58 59 60 61 61 62 62 62 61 60 59 58 58 58 58 59 59 60 60 60 61
37 38 38 40 41 44 46 48 50 52 54 56 57 57 58 58 58 58 58 57 58 58 59 60 60 60 60 60 60 59 58 57 56 56 56 57 57 58 58 58 57 57 56
39 40 42 44 45 47 50 52 54 55 57 58 58 58 58 58 57 57 57 58 58 58 58 58 58 58 58 57 57 56 55 55 55 55 56 56 56 56 55 55 54 51 48
41 43 45 47 49 51 53 55 57 57 58 57 57 57 56 56 56 56 57 56 56 56 56 55 55 55 54 54 53 53 53 54 54 54 54 54 54 53 52 50 47 43 38
45 47 48 50 52 54 55 55 55 55 55 55 55 55 54 54 55 55 55 54 53 53 52 52 52 52 52 52 52 52 52 51 51 51 51 51 50 47 44 40 37 34 29
44 45 47 49 51 52 53 53 54 53 53 53 53 53 53 52 52 51 50 50 49 49 49 49 49 49 49 49 49 48 49 49 48 47 46 44 41 37 34 31 28 25 24
43 45 47 49 50 51 51 51 51 51 51 50 50 50 49 48 48 47 46 46 46 46 46 46 46 46 46 46 47 46 46 45 43 42 39 35 31 28 24 21 20 19 20
44 46 47 48 48 48 48 48 48 48 48 47 47 46 45 44 44 43 43 43 43 43 43 43 44 44 44 44 43 41 40 38 37 34 31 26 22 19 16 15 15 16 18
43 43 44 44 45 45 45 45 45 44 44 43 42 41 41 40 40 40 40 40 41 41 42 42 41 41 40 39 37 35 33 31 28 26 23 18 14 12 11 11 13 15 17
39 40 40 41 41 41 41 40 40 39 39 38 37 37 37 37 38 38 39 39 39 39 39 38 37 36 34 32 30 27 24 22 21 18 14 11 8 7 8 10 12 14 17
35 36 37 37 37 36 36 35 34 34 34 34 34 35 36 36 37 37 37 37 36 35 34 32 30 29 27 25 22 19 17 16 13 10 7 5 5 6 7 10 12 14 17
31 31 31 31 30 30 30 29 30 31 32 33 34 35 35 36 36 35 34 33 31 29 27 25 23 22 20 18 16 13 11 9 6 4 3 3 4 6 8 10 11 14 17
26 25 25 25 25 25 26 27 29 30 32 33 34 34 34 34 33 31 29 27 25 22 20 18 17 16 15 13 12 9 6 3 2 3 4 5 5 7 8 10 12 14 17
20 20 20 21 22 24 25 27 29 30 32 32 32 32 31 30 28 25 23 20 18 16 15 14 13 12 11 10 8 5 4 5 6 6 6 6 7 8 9 11 13 15 17
Wind_Direction
265 264 265 270 277 286 293 298 301 303 303 303 301 299 295 292 292 289 283 279 275 273 273 269 271 275 279 283 286 289 291 292 292 293 293 292 290 287 286 285 284 283 283
265 265 265 268 274 280 285 291 294 295 296 296 294 293 291 288 290 291 295 287 281 278 279 278 280 282 290 298 300 300 299 297 296 296 294 293 291 288 287 286 285 284 283
263 263 263 266 271 275 281 285 288 290 292 291 288 285 286 286 288 291 297 297 293 288 284 285 290 292 300 303 302 304 303 301 299 298 295 294 292 290 289 287 286 285 285
260 261 263 266 270 275 281 285 287 289 289 289 285 282 284 285 290 294 299 300 301 302 295 297 298 300 303 305 305 305 303 302 300 298 296 295 294 293 291 289 288 287 287
262 262 264 267 272 277 281 284 286 287 288 289 287 285 287 289 293 299 303 308 306 305 303 300 302 304 305 305 305 304 303 302 301 299 298 297 296 294 293 291 290 289 288
262 264 266 269 273 277 280 282 284 285 285 287 288 290 294 297 303 311 313 310 308 307 306 305 306 306 305 305 304 303 302 302 300 299 299 298 297 295 294 293 291 290 289
263 265 267 269 272 274 276 279 280 281 283 286 289 296 303 308 313 318 316 311 306 305 305 305 305 305 304 303 302 301 301 300 299 298 298 297 296 295 294 293 292 290 289
262 265 267 269 271 272 274 276 277 279 283 287 291 300 304 309 311 314 312 308 304 304 304 303 304 303 302 300 300 299 298 297 297 296 296 296 295 295 294 294 292 291 290
263 265 267 270 272 273 274 276 279 282 286 291 296 300 304 307 308 309 308 306 304 303 303 302 302 301 299 298 297 296 295 295 296 296 296 296 296 296 295 294 293 292 291
264 265 268 271 272 275 278 281 284 288 292 295 298 301 302 303 305 306 306 304 303 302 301 300 299 298 296 295 294 294 294 295 295 296 296 296 296 296 295 295 294 294 293
269 271 273 275 277 280 283 286 289 293 295 297 299 299 300 301 302 304 303 302 301 301 300 299 297 296 295 294 293 294 294 295 296 296 296 296 296 296 296 296 296 296 295
272 275 278 281 283 285 287 288 291 293 295 297 298 298 298 299 300 301 302 301 301 300 299 298 297 295 294 294 293 294 294 295 295 296 296 296 296 297 297 298 297 297 297
271 275 279 283 285 287 288 289 291 293 294 295 296 298 299 299 299 300 301 300 299 299 298 297 296 295 294 294 294 295 295 296 296 297 297 298 298 298 298 298 298 298 298
271 276 280 284 286 288 289 290 292 293 293 294 296 297 299 299 299 299 299 299 298 298 297 296 295 295 295 295 295 295 296 297 297 298 299 299 299 298 298 299 299 300 300
273 278 282 285 287 289 290 291 293 294 295 296 297 298 299 299 298 298 298 297 297 296 296 295 295 295 295 295 296 297 297 298 299 299 299 299 299 299 299 300 300 301 302
278 281 284 287 289 290 291 293 294 296 297 297 297 298 298 297 297 296 296 296 296 295 295 295 295 295 296 296 297 297 298 299 299 299 299 300 300 301 301 302 303 304 304
284 286 287 289 291 292 294 295 296 297 297 297 297 297 296 296 296 296 296 296 296 295 295 295 295 296 296 297 297 298 298 299 299 299 299 300 302 303 304 304 305 306 308
285 286 288 290 292 294 295 295 296 297 297 296 296 296 296 296 296 296 295 295 295 295 295 295 296 297 297 298 298 298 298 298 299 300 301 302 304 305 305 305 306 309 312
286 288 290 292 293 294 295 295 296 296 296 295 295 295 296 295 295 295 294 294 294 295 295 296 296 297 297 297 297 298 298 299 300 302 303 305 306 305 304 306 309 312 315
287 289 290 291 292 293 294 295 295 295 295 295 295 295 295 294 294 294 294 295 295 296 296 296 296 297 297 297 298 299 300 301 303 304 306 307 306 305 307 311 316 319 322
288 289 290 291 293 293 294 295 295 295 296 296 295 295 294 295 295 295 296 296 296 296 296 296 297 297 298 298 299 301 302 303 304 306 307 309 311 313 318 323 327 330 333
288 289 291 292 293 293 294 294 295 295 296 296 296 296 296 296 296 296 296 296 296 296 297 297 298 299 300 301 303 304 305 304 305 306 308 313 321 329 334 338 340 342 345
289 290 291 292 293 294 295 296 297 298 298 298 298 298 298 298 298 298 298 298 298 299 299 300 301 303 304 306 307 307 307 306 307 309 318 334 346 351 353 352 352 355 359
291 292 292 294 295 297 298 299 300 301 301 301 301 301 300 300 300 300 300 301 301 302 302 304 305 307 309 311 311 312 312 310 313 329 7 28 24 14 7 6 8 10 11
293 295 297 299 301 303 304 304 305 305 305 305 304 304 303 302 303 303 303 304 303 304 305 307 309 312 315 318 321 324 329 348 49 72 70 57 41 26 23 23 23 21 21
299 301 304 306 308 309 310 310 310 310 309 308 307 307 305 305 305 305 306 306 306 307 309 312 315 319 324 330 337 355 49 82 89 84 74 63 49 41 41 37 33 30 28
Height
5857 5859 5860 5861 5861 5861 5861 5859 5858 5855 5852 5849 5846 5843 5839 5835 5831 5827 5822 5820 5819 5818 5817 5817 5817 5817 5817 5817 5815 5814 5813 5812 5810 5808 5805 5803 5800 5797 5795 5792 5790 5787 5784
5850 5852 5853 5854 5855 5856 5855 5854 5852 5849 5846 5843 5839 5836 5831 5827 5824 5819 5816 5814 5812 5812 5811 5811 5811 5810 5809 5808 5807 5806 5804 5803 5801 5798 5796 5793 5791 5788 5785 5782 5778 5775 5771
5843 5845 5846 5847 5848 5848 5848 5847 5845 5843 5840 5837 5832 5828 5824 5820 5816 5813 5811 5808 5807 5806 5805 5804 5803 5802 5801 5800 5798 5797 5796 5793 5791 5789 5786 5783 5780 5777 5774 5770 5766 5762 5758
5837 5838 5839 5840 5840 5841 5840 5839 5838 5836 5833 5829 5824 5819 5814 5811 5808 5806 5804 5802 5800 5799 5798 5796 5795 5794 5793 5791 5790 5788 5786 5783 5781 5778 5775 5772 5768 5765 5762 5758 5753 5748 5743
5830 5832 5833 5833 5834 5834 5833 5831 5830 5828 5825 5821 5816 5812 5807 5804 5802 5799 5797 5795 5794 5793 5792 5790 5788 5787 5785 5783 5780 5778 5775 5772 5769 5766 5762 5759 5755 5751 5748 5745 5740 5734 5728
5823 5824 5825 5826 5826 5826 5825 5824 5822 5820 5817 5813 5809 5804 5799 5796 5792 5791 5790 5789 5788 5786 5785 5783 5781 5778 5776 5773 5770 5767 5763 5760 5756 5753 5749 5745 5741 5736 5732 5729 5725 5721 5714
5816 5817 5818 5818 5819 5818 5817 5816 5814 5812 5809 5805 5801 5796 5793 5790 5786 5784 5783 5782 5781 5780 5778 5775 5772 5769 5766 5763 5759 5755 5752 5748 5744 5739 5735 5730 5725 5720 5716 5712 5707 5703 5699
5809 5810 5811 5811 5811 5810 5809 5808 5806 5803 5801 5797 5794 5790 5786 5783 5780 5778 5777 5775 5773 5771 5769 5766 5762 5759 5755 5751 5747 5743 5739 5735 5730 5725 5720 5715 5709 5703 5698 5693 5688 5685 5682
5803 5804 5804 5804 5803 5803 5801 5800 5798 5795 5792 5789 5786 5783 5779 5776 5773 5771 5769 5767 5764 5762 5758 5755 5751 5747 5743 5739 5735 5730 5725 5720 5715 5710 5704 5699 5692 5686 5680 5674 5669 5665 5663
5798 5798 5798 5797 5796 5795 5793 5791 5789 5787 5784 5781 5777 5774 5771 5768 5765 5762 5759 5757 5754 5750 5747 5743 5739 5735 5730 5726 5721 5716 5710 5705 5700 5694 5688 5682 5676 5670 5663 5657 5650 5644 5640
5791 5791 5790 5789 5788 5786 5785 5782 5780 5777 5774 5771 5768 5765 5761 5758 5755 5752 5749 5745 5742 5738 5734 5730 5725 5721 5716 5711 5706 5700 5695 5689 5684 5678 5672 5666 5660 5654 5647 5640 5633 5626 5620
5783 5783 5782 5781 5780 5778 5776 5774 5771 5768 5765 5761 5758 5754 5751 5748 5744 5741 5737 5733 5728 5724 5720 5715 5711 5706 5700 5695 5690 5685 5679 5674 5668 5663 5657 5651 5644 5638 5631 5624 5617 5609 5602
5775 5774 5773 5772 5771 5769 5767 5765 5762 5759 5755 5751 5747 5743 5739 5736 5732 5728 5724 5719 5715 5710 5705 5700 5695 5690 5685 5680 5674 5669 5664 5659 5653 5648 5642 5635 5629 5623 5616 5609 5602 5595 5587
5765 5765 5763 5762 5761 5759 5757 5754 5751 5748 5744 5740 5736 5732 5727 5723 5719 5714 5710 5705 5700 5695 5690 5685 5680 5675 5669 5664 5659 5654 5649 5644 5639 5633 5627 5621 5615 5609 5602 5595 5588 5581 5574
5755 5754 5753 5752 5750 5748 5746 5743 5739 5736 5732 5728 5724 5719 5714 5710 5705 5700 5695 5690 5686 5681 5676 5670 5665 5660 5655 5650 5645 5640 5635 5630 5625 5619 5613 5607 5601 5595 5588 5582 5575 5568 5562
5745 5744 5742 5740 5738 5736 5733 5730 5726 5723 5719 5715 5710 5706 5701 5696 5691 5686 5681 5676 5671 5666 5661 5656 5651 5646 5641 5636 5632 5627 5622 5617 5612 5606 5599 5593 5588 5582 5576 5569 5563 5557 5552
5734 5733 5731 5728 5726 5723 5720 5716 5712 5709 5705 5700 5696 5692 5687 5682 5677 5672 5667 5662 5657 5652 5647 5642 5637 5633 5628 5624 5619 5615 5610 5605 5600 5594 5588 5582 5576 5571 5565 5559 5553 5548 5543
5723 5721 5718 5716 5713 5710 5706 5703 5699 5695 5691 5687 5682 5678 5673 5668 5663 5658 5653 5648 5644 5639 5635 5630 5626 5621 5617 5612 5607 5602 5598 5593 5588 5583 5578 5572 5567 5562 5557 5552 5548 5543 5539
5712 5709 5707 5704 5701 5697 5694 5690 5686 5681 5677 5673 5668 5664 5659 5654 5649 5645 5640 5636 5632 5627 5623 5618 5614 5610 5605 5601 5596 5591 5586 5582 5577 5573 5568 5564 5559 5555 5551 5547 5544 5540 5536
5701 5698 5695 5692 5689 5685 5681 5677 5673 5668 5664 5660 5655 5650 5646 5641 5637 5633 5628 5624 5620 5616 5612 5608 5603 5599 5594 5590 5585 5581 5576 5572 5568 5564 5560 5557 5553 5550 5547 5544 5541 5537 5534
5690 5687 5684 5681 5677 5673 5669 5665 5660 5656 5651 5647 5643 5638 5634 5630 5625 5621 5617 5613 5609 5605 5601 5597 5593 5588 5584 5579 5576 5572 5568 5564 5560 5557 5554 5551 5549 5547 5544 5542 5539 5536 5532
5680 5677 5674 5670 5666 5662 5658 5654 5649 5645 5640 5636 5632 5627 5623 5619 5615 5611 5607 5603 5599 5595 5591 5586 5582 5579 5575 5571 5567 5564 5561 5558 5555 5552 5550 5548 5547 5545 5543 5541 5538 5534 5530
5671 5668 5664 5661 5657 5652 5648 5644 5639 5635 5630 5626 5622 5617 5613 5609 5604 5600 5596 5592 5588 5585 5581 5577 5574 5570 5567 5564 5561 5558 5555 5553 5551 5549 5548 5547 5546 5544 5543 5541 5538 5534 5530
5662 5659 5656 5652 5648 5644 5639 5635 5631 5626 5621 5617 5612 5607 5603 5598 5594 5590 5586 5583 5579 5576 5573 5570 5567 5565 5562 5559 5556 5554 5552 5550 5549 5548 5547 5547 5546 5545 5543 5541 5538 5534 5530
5655 5652 5648 5645 5641 5637 5632 5628 5623 5618 5613 5608 5603 5598 5593 5589 5585 5581 5578 5575 5572 5570 5567 5565 5563 5560 5558 5555 5553 5551 5549 5549 5548 5548 5548 5548 5547 5546 5544 5541 5538 5535 5531
5649 5646 5643 5639 5635 5631 5626 5621 5615 5610 5605 5599 5594 5589 5585 5581 5577 5574 5571 5569 5567 5565 5563 5561 5559 5557 5555 5553 5551 5549 5549 5549 5549 5549 5549 5549 5548 5547 5545 5543 5540 5537 5534